• In Uzbekistan
  • List of Countries
  • For 7 days
  • Water Temperature
  • Satellite Maps
  • Weather Map
  • Weather Widgets
  • user-avatar
    Login

    Hourly Weather Yulara

    Today, 28 March, Tuesday

    Time Temperature Precipitation Wind Pressure Humidity
    00:00 +28°C° 0 mm 6 mps 718 mmHg 36%
    01:00 +27°C° 0 mm 5 mps 718 mmHg 36%
    02:00 +27°C° 0 mm 5 mps 718 mmHg 36%
    03:00 +26°C° 0 mm 5 mps 717 mmHg 36%
    04:00 +26°C° 0 mm 5 mps 717 mmHg 35%
    05:00 +25°C° 0 mm 5 mps 717 mmHg 35%
    06:00 +25°C° 0 mm 5 mps 717 mmHg 35%
    07:00 +26°C° 0 mm 5 mps 718 mmHg 32%
    08:00 +28°C° 0 mm 6 mps 718 mmHg 30%
    09:00 +29°C° 0 mm 6 mps 718 mmHg 28%
    10:00 +32°C° 0 mm 6 mps 718 mmHg 26%
    11:00 +33°C° 0 mm 6 mps 718 mmHg 24%
    12:00 +35°C° 0 mm 6 mps 717 mmHg 22%
    13:00 +36°C° 0 mm 5 mps 717 mmHg 22%
    14:00 +36°C° 0 mm 5 mps 716 mmHg 21%
    15:00 +37°C° 0 mm 5 mps 716 mmHg 20%
    16:00 +36°C° 0 mm 5 mps 716 mmHg 21%
    17:00 +35°C° 0 mm 5 mps 715 mmHg 22%
    18:00 +35°C° 0 mm 5 mps 715 mmHg 22%
    19:00 +33°C° 0 mm 5 mps 716 mmHg 24%
    20:00 +32°C° 0 mm 5 mps 716 mmHg 26%
    21:00 +30°C° 0 mm 4 mps 716 mmHg 27%
    22:00 +30°C° 0 mm 5 mps 716 mmHg 28%
    23:00 +29°C° 0 mm 5 mps 716 mmHg 29%

    Tomorrow, 29 March, Wednesday

    Time Temperature Precipitation Wind Pressure Humidity
    00:00 +28°C° 0 mm 5 mps 717 mmHg 30%
    01:00 +28°C° 0 mm 5 mps 716 mmHg 31%
    02:00 +27°C° 0 mm 5 mps 716 mmHg 32%
    03:00 +26°C° 0 mm 4 mps 716 mmHg 33%
    04:00 +26°C° 0 mm 4 mps 716 mmHg 35%
    05:00 +25°C° 0 mm 4 mps 716 mmHg 36%
    06:00 +25°C° 0 mm 3 mps 716 mmHg 37%
    07:00 +26°C° 0 mm 3 mps 717 mmHg 34%
    08:00 +28°C° 0 mm 4 mps 717 mmHg 31%
    09:00 +30°C° 0 mm 4 mps 718 mmHg 27%
    10:00 +33°C° 0 mm 4 mps 718 mmHg 24%
    11:00 +35°C° 0 mm 5 mps 718 mmHg 22%
    12:00 +38°C° 0 mm 6 mps 718 mmHg 19%
    13:00 +38°C° 0 mm 6 mps 718 mmHg 18%
    14:00 +39°C° 0 mm 7 mps 717 mmHg 17%
    15:00 +39°C° 0 mm 7 mps 717 mmHg 17%
    16:00 +38°C° 0 mm 7 mps 717 mmHg 17%
    17:00 +35°C° 0 mm 8 mps 717 mmHg 18%
    18:00 +34°C° 0 mm 8 mps 718 mmHg 19%
    19:00 +33°C° 0 mm 8 mps 718 mmHg 20%
    20:00 +31°C° 0 mm 9 mps 719 mmHg 21%
    21:00 +29°C° 0 mm 10 mps 720 mmHg 21%
    22:00 +27°C° 0 mm 10 mps 720 mmHg 28%
    23:00 +26°C° 0 mm 10 mps 720 mmHg 35%

    Day after tomorrow, 30 March, Thursday

    Time Temperature Precipitation Wind Pressure Humidity
    00:00 +23°C° 0 mm 11 mps 720 mmHg 42%
    01:00 +22°C° 0 mm 10 mps 720 mmHg 47%
    02:00 +21°C° 0 mm 10 mps 720 mmHg 52%
    03:00 +19°C° 0 mm 9 mps 720 mmHg 57%
    04:00 +18°C° 0 mm 9 mps 720 mmHg 57%
    05:00 +17°C° 0 mm 9 mps 721 mmHg 56%
    06:00 +16°C° 0 mm 9 mps 721 mmHg 56%
    07:00 +17°C° 0 mm 9 mps 721 mmHg 52%
    08:00 +17°C° 0 mm 9 mps 722 mmHg 47%
    09:00 +18°C° 0 mm 9 mps 722 mmHg 43%
    10:00 +21°C° 0 mm 9 mps 722 mmHg 36%
    11:00 +23°C° 0 mm 9 mps 722 mmHg 29%
    12:00 +26°C° 0 mm 9 mps 722 mmHg 21%
    13:00 +27°C° 0 mm 8 mps 721 mmHg 19%
    14:00 +28°C° 0 mm 8 mps 721 mmHg 17%
    15:00 +29°C° 0 mm 8 mps 720 mmHg 15%
    16:00 +28°C° 0 mm 7 mps 720 mmHg 16%
    17:00 +27°C° 0 mm 6 mps 720 mmHg 18%
    18:00 +26°C° 0 mm 6 mps 720 mmHg 19%
    19:00 +23°C° 0 mm 6 mps 721 mmHg 21%
    20:00 +22°C° 0 mm 5 mps 721 mmHg 23%
    21:00 +20°C° 0 mm 5 mps 722 mmHg 25%
    22:00 +19°C° 0 mm 5 mps 722 mmHg 27%
    23:00 +19°C° 0 mm 5 mps 722 mmHg 28%

    31 March, Friday

    Time Temperature Precipitation Wind Pressure Humidity
    00:00 +18°C° 0 mm 4 mps 722 mmHg 30%
    01:00 +17°C° 0 mm 5 mps 722 mmHg 31%
    02:00 +16°C° 0 mm 5 mps 722 mmHg 31%
    03:00 +16°C° 0 mm 5 mps 721 mmHg 32%
    04:00 +17°C° 0 mm 4 mps 721 mmHg 32%
    05:00 +15°C° 0 mm 4 mps 722 mmHg 32%
    06:00 +15°C° 0 mm 4 mps 722 mmHg 32%
    07:00 +18°C° 0 mm 4 mps 722 mmHg 29%
    08:00 +19°C° 0 mm 5 mps 722 mmHg 26%
    09:00 +20°C° 0 mm 6 mps 722 mmHg 23%
    10:00 +22°C° 0 mm 5 mps 722 mmHg 20%
    11:00 +25°C° 0 mm 5 mps 722 mmHg 18%
    12:00 +26°C° 0 mm 5 mps 721 mmHg 15%
    13:00 +27°C° 0 mm 5 mps 721 mmHg 14%
    14:00 +28°C° 0 mm 5 mps 720 mmHg 13%
    15:00 +29°C° 0 mm 5 mps 720 mmHg 11%
    16:00 +28°C° 0 mm 5 mps 720 mmHg 12%
    17:00 +27°C° 0 mm 5 mps 720 mmHg 13%
    18:00 +26°C° 0 mm 4 mps 720 mmHg 14%
    19:00 +25°C° 0 mm 4 mps 721 mmHg 16%
    20:00 +22°C° 0 mm 5 mps 721 mmHg 18%
    21:00 +21°C° 0 mm 5 mps 722 mmHg 20%
    22:00 +20°C° 0 mm 4 mps 721 mmHg 22%
    23:00 +19°C° 0 mm 4 mps 721 mmHg 24%

    1 April, Saturday

    Time Temperature Precipitation Wind Pressure Humidity
    00:00 +19°C° 0 mm 4 mps 721 mmHg 27%
    01:00 +18°C° 0 mm 4 mps 721 mmHg 29%
    02:00 +17°C° 0 mm 4 mps 721 mmHg 31%
    03:00 +17°C° 0 mm 4 mps 721 mmHg 33%
    04:00 +15°C° 0 mm 4 mps 721 mmHg 35%
    05:00 +15°C° 0 mm 4 mps 721 mmHg 36%
    06:00 +14°C° 0 mm 4 mps 722 mmHg 38%
    07:00 +16°C° 0 mm 5 mps 722 mmHg 34%
    08:00 +19°C° 0 mm 6 mps 723 mmHg 31%
    09:00 +21°C° 0 mm 7 mps 723 mmHg 27%
    10:00 +23°C° 0 mm 7 mps 723 mmHg 24%
    11:00 +26°C° 0 mm 7 mps 723 mmHg 21%
    12:00 +27°C° 0 mm 7 mps 722 mmHg 19%
    13:00 +28°C° 0 mm 7 mps 722 mmHg 17%
    14:00 +29°C° 0 mm 7 mps 721 mmHg 16%
    15:00 +29°C° 0 mm 7 mps 720 mmHg 15%
    16:00 +28°C° 0 mm 7 mps 721 mmHg 16%
    17:00 +27°C° 0 mm 6 mps 721 mmHg 17%
    18:00 +26°C° 0 mm 6 mps 721 mmHg 19%
    19:00 +24°C° 0 mm 6 mps 721 mmHg 21%
    20:00 +22°C° 0 mm 5 mps 722 mmHg 24%
    21:00 +21°C° 0 mm 5 mps 722 mmHg 26%
    22:00 +20°C° 0 mm 5 mps 722 mmHg 28%
    23:00 +19°C° 0 mm 5 mps 722 mmHg 30%

    2 April, Sunday

    Time Temperature Precipitation Wind Pressure Humidity
    00:00 +19°C° 0 mm 5 mps 722 mmHg 31%
    01:00 +17°C° 0 mm 5 mps 722 mmHg 33%
    02:00 +17°C° 0 mm 5 mps 722 mmHg 35%
    03:00 +16°C° 0 mm 5 mps 722 mmHg 36%
    04:00 +16°C° 0 mm 5 mps 722 mmHg 38%
    05:00 +15°C° 0 mm 5 mps 722 mmHg 39%
    06:00 +15°C° 0 mm 5 mps 723 mmHg 41%
    07:00 +17°C° 0 mm 7 mps 723 mmHg 36%
    08:00 +20°C° 0 mm 8 mps 724 mmHg 31%
    09:00 +21°C° 0 mm 9 mps 724 mmHg 27%
    10:00 +23°C° 0 mm 9 mps 724 mmHg 23%
    11:00 +26°C° 0 mm 8 mps 723 mmHg 20%
    12:00 +27°C° 0 mm 8 mps 723 mmHg 17%
    13:00 +28°C° 0 mm 8 mps 723 mmHg 16%
    14:00 +29°C° 0 mm 8 mps 722 mmHg 15%
    15:00 +31°C° 0 mm 8 mps 721 mmHg 14%
    16:00 +28°C° 0 mm 7 mps 722 mmHg 15%
    17:00 +27°C° 0 mm 6 mps 722 mmHg 16%
    18:00 +26°C° 0 mm 5 mps 722 mmHg 18%
    19:00 +25°C° 0 mm 5 mps 722 mmHg 19%
    20:00 +22°C° 0 mm 5 mps 723 mmHg 21%
    21:00 +21°C° 0 mm 5 mps 723 mmHg 23%
    22:00 +20°C° 0 mm 5 mps 723 mmHg 25%
    23:00 +20°C° 0 mm 5 mps 723 mmHg 26%
    Show more